Elkins, WV

11:09 AM EDT on April 29, 2017 (GMT -0400)
Elkins-Randolph County

Weather History for KEKN - February, 2013

Change the Weather History Date:

Sunday, February 17, 2013

  Actual Average Record
Temperature  
Mean Temperature 12 °F 32 °F  
Max Temperature 20 °F 43 °F 67 °F (1961)
Min Temperature 4 °F 22 °F -9 °F (1904)
Degree Days  
Heating Degree Days 53 33  
Month to date heating degree days 623 577  
Since 1 July heating degree days 3876 3978  
Cooling Degree Days 0 0  
Month to date cooling degree days 0 0  
Year to date cooling degree days 0 0  
Moisture  
Dew Point 8 °F    
Average Humidity 67    
Maximum Humidity 84    
Minimum Humidity 49    
Precipitation  
Precipitation 0.11 in 0.12 in 0.88 in (1986)
Month to date precipitation 1.50 1.84  
Year to date precipitation 6.01 5.07  
Snow  
Snow 3.80 in - - ()
Month to date snowfall 17.4  
Since 1 September snowfall 55.5  
Snow Depth 3.00 in    
Sea Level Pressure  
Sea Level Pressure 30.01 in    
Wind  
Wind Speed 9 mph (WNW)    
Max Wind Speed 21 mph    
Max Gust Speed 25 mph    
Visibility 3 miles    
Events Fog , Snow    
T = Trace of Precipitation, MM = Missing Value Source: NWS Daily Summary

Daily Weather History Graph

Daily Weather History Graph

Search for Another Location

Airport or City:

Trip Planner

Search our weather history database for the weather conditions in past years. The results will help you decide how hot, cold, wet, or windy it might be!

Date:

Astronomy

Feb. 17, 2013 Rise Set
Actual Time 7:07 AM EST 5:59 PM EST
Civil Twilight 6:40 AM EST 6:26 PM EST
Nautical Twilight 6:09 AM EST 6:57 PM EST
Astronomical Twilight 5:38 AM EST 7:28 PM EST
Moon 11:04 AM EST (2/17) 12:49 AM EST (2/17)
Length of Visible Light 11h 45m
Length of Day
10h 51m
Waxing Crescent, 49% of the Moon is Illuminated
Feb 17
Waxing Crescent
Feb 17
First Quarter
Feb 25
Full
Mar 4
Last Quarter
Mar 11
New

Hourly Weather History & Observations

Time (EST) Temp. Windchill Dew Point Humidity Pressure Visibility Wind Dir Wind Speed Gust Speed Precip Events Conditions
12:05 AM 19.4 °F 10.4 °F 15.8 °F 86% 29.86 in 1.2 mi WNW 6.9 mph - 0.00 in Snow Light Snow
12:17 AM 19.4 °F 8.6 °F 15.8 °F 86% 29.86 in 0.8 mi West 9.2 mph - 0.00 in Snow Light Snow
12:25 AM 19.4 °F 6.6 °F 14.0 °F 80% 29.86 in 1.2 mi West 12.7 mph 20.7 mph 0.00 in Snow Light Snow
12:46 AM 19.4 °F 5.0 °F 14.0 °F 80% 29.86 in 2.0 mi WNW 16.1 mph 24.2 mph 0.00 in Snow Light Snow
12:51 AM 19.9 °F 7.3 °F 14.0 °F 78% 29.95 in 2.5 mi WNW 12.7 mph 24.2 mph 0.00 in Snow Light Snow
1:05 AM 19.4 °F 4.5 °F 14.0 °F 80% 29.86 in 1.2 mi WNW 17.3 mph 24.2 mph 0.00 in Snow Light Snow
1:33 AM 19.4 °F 6.6 °F 12.2 °F 74% 29.87 in 1.0 mi WNW 12.7 mph 23.0 mph 0.00 in Snow Light Snow
1:41 AM 19.4 °F 6.6 °F 12.2 °F 74% 29.87 in 2.0 mi WNW 12.7 mph - 0.00 in Snow Light Snow
1:51 AM 19.0 °F 4.5 °F 12.0 °F 74% 29.97 in 1.0 mi West 16.1 mph 23.0 mph 0.00 in Snow Light Snow
1:57 AM 17.6 °F 4.3 °F 12.2 °F 79% 29.87 in 0.2 mi WNW 12.7 mph 21.9 mph 0.00 in Snow Heavy Snow
2:02 AM 17.6 °F 3.7 °F 12.2 °F 79% 29.87 in 0.5 mi West 13.8 mph 19.6 mph 0.01 in Snow Snow
2:08 AM 17.6 °F 3.7 °F 12.2 °F 79% 29.87 in 1.0 mi West 13.8 mph 21.9 mph 0.01 in Snow Light Snow
2:17 AM 17.6 °F 3.2 °F 10.4 °F 73% 29.88 in 2.0 mi WNW 15.0 mph 23.0 mph 0.01 in Snow Light Snow
2:27 AM 17.6 °F 3.7 °F 10.4 °F 73% 29.87 in 4.0 mi West 13.8 mph 21.9 mph 0.01 in Snow Light Snow
2:51 AM 17.1 °F 2.5 °F 9.0 °F 71% 29.98 in 4.0 mi West 15.0 mph 25.3 mph 0.01 in Snow Light Snow
3:26 AM 15.8 °F 2.7 °F 8.6 °F 73% 29.88 in 1.8 mi West 11.5 mph 21.9 mph 0.00 in Snow Light Snow
3:46 AM 15.8 °F 4.2 °F 10.4 °F 79% 29.88 in 0.8 mi WNW 9.2 mph 18.4 mph 0.00 in Snow Light Snow
3:51 AM 16.0 °F 2.9 °F 10.0 °F 77% 29.98 in 1.0 mi WNW 11.5 mph 18.4 mph 0.00 in Snow Light Snow
3:57 AM 15.8 °F 3.4 °F 8.6 °F 73% 29.88 in 2.0 mi WNW 10.4 mph 18.4 mph 0.00 in Snow Light Snow
4:04 AM 15.8 °F 3.4 °F 8.6 °F 73% 29.88 in 1.2 mi WNW 10.4 mph 18.4 mph 0.00 in Snow Light Snow
4:23 AM 15.8 °F 5.1 °F 10.4 °F 79% 29.89 in 0.8 mi West 8.1 mph - 0.00 in Snow Light Snow
4:31 AM 15.8 °F 7.2 °F 10.4 °F 79% 29.89 in 0.8 mi West 5.8 mph - 0.01 in Snow Light Snow
4:35 AM 15.8 °F 3.4 °F 10.4 °F 79% 29.89 in 1.0 mi West 10.4 mph - 0.01 in Snow Light Snow
4:51 AM 16.0 °F 5.3 °F 10.0 °F 77% 29.99 in 1.0 mi WNW 8.1 mph - 0.01 in Snow Light Snow
5:00 AM 15.8 °F 2.7 °F 8.6 °F 73% 29.90 in 2.0 mi WNW 11.5 mph 23.0 mph 0.00 in Snow Light Snow
5:17 AM 15.8 °F 4.2 °F 8.6 °F 73% 29.91 in 0.8 mi NW 9.2 mph 21.9 mph 0.00 in Snow Light Snow
5:25 AM 14.0 °F 2.0 °F 8.6 °F 79% 29.91 in 0.5 mi West 9.2 mph 20.7 mph 0.00 in Snow Snow
5:35 AM 14.0 °F -1.4 °F 8.6 °F 79% 29.91 in 0.5 mi West 15.0 mph 23.0 mph 0.01 in Snow Snow
5:51 AM 14.0 °F 2.9 °F 9.0 °F 80% 30.01 in 0.5 mi WNW 8.1 mph - 0.01 in Snow Snow
6:09 AM 14.0 °F -2.0 °F 8.6 °F 79% 29.92 in 0.2 mi West 16.1 mph 24.2 mph 0.02 in Snow Heavy Snow
6:19 AM 12.2 °F -3.1 °F 8.6 °F 85% 29.92 in 0.2 mi West 13.8 mph 24.2 mph 0.02 in Snow Heavy Snow
6:27 AM 12.2 °F 0.7 °F 8.6 °F 85% 29.93 in 0.5 mi WNW 8.1 mph 20.7 mph 0.02 in Snow Snow
6:38 AM 12.2 °F -1.8 °F 6.8 °F 79% 29.93 in 1.0 mi West 11.5 mph 20.7 mph 0.02 in Snow Light Snow
6:51 AM 12.9 °F 2.6 °F 8.1 °F 81% 30.04 in 1.8 mi WNW 6.9 mph - 0.02 in Snow Light Snow
7:07 AM 12.2 °F -1.8 °F 8.6 °F 85% 29.94 in 0.5 mi West 11.5 mph 17.3 mph 0.00 in Fog , Snow Snow
7:15 AM 12.2 °F -1.8 °F 6.8 °F 79% 29.94 in 0.2 mi West 11.5 mph - 0.01 in Snow Heavy Snow
7:22 AM 12.2 °F 0.7 °F 8.6 °F 85% 29.95 in 0.2 mi WNW 8.1 mph - 0.02 in Fog , Snow Heavy Snow
7:42 AM 10.4 °F -0.4 °F 6.8 °F 85% 29.96 in 0.5 mi NW 6.9 mph - 0.04 in Fog , Snow Snow
7:51 AM 10.9 °F 1.4 °F 7.0 °F 84% 30.08 in 0.8 mi NW 5.8 mph - 0.04 in Snow Light Snow
8:07 AM 10.4 °F -0.4 °F 6.8 °F 85% 29.98 in 1.0 mi WNW 6.9 mph - 0.00 in Snow Light Snow
8:22 AM 10.4 °F -5.4 °F 3.2 °F 73% 29.98 in 2.0 mi WNW 13.8 mph 21.9 mph 0.00 in Snow Light Snow
8:31 AM 10.4 °F -1.5 °F 1.4 °F 67% 29.98 in 4.0 mi WNW 8.1 mph 18.4 mph 0.00 in Snow Light Snow
8:51 AM 10.9 °F -0.8 °F 3.0 °F 70% 30.11 in 4.0 mi WNW 8.1 mph 18.4 mph 0.00 in Snow Light Snow
9:51 AM 12.0 °F -0.4 °F 3.0 °F 67% 30.14 in 4.0 mi WSW 9.2 mph - 0.00 in Snow Light Snow
10:09 AM 12.2 °F -1.8 °F 1.4 °F 62% 30.02 in 5.0 mi West 11.5 mph - 0.01 in Snow Light Snow
10:32 AM 12.2 °F 0.7 °F 3.2 °F 67% 30.03 in 5.0 mi West 8.1 mph - 0.01 in Snow Light Snow
10:51 AM 12.9 °F -1.6 °F 3.9 °F 67% 30.15 in 3.0 mi WSW 12.7 mph 18.4 mph 0.01 in Snow Light Snow
11:51 AM 15.1 °F 1.8 °F 5.0 °F 64% 30.15 in 2.5 mi West 11.5 mph 18.4 mph 0.01 in Snow Light Snow
12:19 PM 15.8 °F 4.2 °F 6.8 °F 68% 30.03 in 1.2 mi WNW 9.2 mph - 0.00 in Snow Light Snow
12:47 PM 15.8 °F 2.7 °F 5.0 °F 62% 30.03 in 3.0 mi West 11.5 mph 19.6 mph 0.00 in Snow Light Snow
12:51 PM 15.1 °F 4.2 °F 5.0 °F 64% 30.14 in 4.0 mi West 8.1 mph 19.6 mph 0.00 in Snow Light Snow
1:05 PM 15.8 °F 1.4 °F 5.0 °F 62% 30.03 in 2.0 mi WNW 13.8 mph 17.3 mph 0.00 in Snow Light Snow
1:27 PM 15.8 °F 5.1 °F 3.2 °F 58% 30.03 in 4.0 mi WNW 8.1 mph - 0.00 in Snow Light Snow
1:35 PM 15.8 °F 0.9 °F 3.2 °F 58% 30.03 in 9.0 mi West 15.0 mph 21.9 mph 0.00 in   Overcast
1:51 PM 16.0 °F 1.7 °F 3.9 °F 59% 30.14 in 5.0 mi WNW 13.8 mph 19.6 mph 0.00 in Snow Light Snow
2:43 PM 15.8 °F 0.9 °F 6.8 °F 68% 30.05 in 2.5 mi WNW 15.0 mph 23.0 mph 0.00 in Snow Light Snow
2:51 PM 16.0 °F 1.7 °F 6.1 °F 65% 30.17 in 1.5 mi West 13.8 mph 21.9 mph 0.00 in Snow Light Snow
2:59 PM 17.6 °F 5.0 °F 6.8 °F 63% 30.05 in 2.0 mi WNW 11.5 mph 20.7 mph 0.00 in Snow Light Snow
3:07 PM 17.6 °F 7.3 °F 5.0 °F 58% 30.05 in 9.0 mi West 8.1 mph 18.4 mph 0.00 in   Overcast
3:26 PM 17.6 °F 5.7 °F 3.2 °F 53% 30.06 in 9.0 mi SW 10.4 mph 20.7 mph 0.00 in   Mostly Cloudy
3:51 PM 17.1 °F 5.0 °F 3.9 °F 56% 30.17 in 5.0 mi West 10.4 mph 18.4 mph 0.00 in Snow Light Snow
4:51 PM 16.0 °F 7.4 °F 6.1 °F 65% 30.19 in 9.0 mi WSW 5.8 mph - 0.00 in   Mostly Cloudy
5:09 PM 15.8 °F 6.1 °F 6.8 °F 68% 30.07 in 2.0 mi West 6.9 mph - 0.00 in Snow Light Snow
5:15 PM 15.8 °F 7.2 °F 8.6 °F 73% 30.08 in 2.0 mi Variable 5.8 mph - 0.00 in Snow Light Snow
5:24 PM 17.6 °F 8.2 °F 6.8 °F 63% 30.08 in 7.0 mi WNW 6.9 mph - 0.00 in Snow Light Snow
5:38 PM 15.8 °F 3.4 °F 6.8 °F 68% 30.08 in 2.0 mi WNW 10.4 mph 21.9 mph 0.00 in Snow Light Snow
5:42 PM 15.8 °F 5.1 °F 6.8 °F 68% 30.09 in 1.8 mi WNW 8.1 mph 21.9 mph 0.00 in Snow Light Snow
5:45 PM 15.8 °F 4.2 °F 6.8 °F 68% 30.09 in 2.5 mi WNW 9.2 mph - 0.00 in Snow Light Snow
5:51 PM 16.0 °F 6.3 °F 7.0 °F 68% 30.21 in 5.0 mi Variable 6.9 mph - 0.00 in Snow Light Snow
6:02 PM 15.8 °F 6.1 °F 6.8 °F 68% 30.09 in 10.0 mi Variable 6.9 mph - 0.00 in   Overcast
6:51 PM 17.1 °F 5.8 °F 3.0 °F 54% 30.23 in 10.0 mi West 9.2 mph 17.3 mph 0.00 in   Overcast
7:51 PM 17.1 °F 8.7 °F 1.9 °F 52% 30.26 in 10.0 mi Variable 5.8 mph - N/A   Overcast
8:51 PM 17.1 °F 7.6 °F 3.0 °F 54% 30.28 in 10.0 mi West 6.9 mph - N/A   Overcast
9:51 PM 16.0 °F 5.3 °F 3.0 °F 57% 30.29 in 10.0 mi WNW 8.1 mph - N/A   Overcast
10:51 PM 12.9 °F 6.9 °F 1.9 °F 62% 30.31 in 10.0 mi NW 3.5 mph - N/A   Clear